Other Public Products
Issued by NWS Charleston, SC

Current Version | Previous Version | Graphics & Text | Print | Product List | Glossary On
Versions: 1 2 3 4 5 6 7 8 9 10 11 12 13 14 15 16 17 18 19 20 21 22 23 24 25 26 27 28 29 30 31 32 33 34 35 36 37 38 39 40 41 42 43 44 45 46 47 48 49 50
000 FPUS82 KCHS 230126 OPUCHS TEST...KCHS/KSAV Gateway Observations...TEST National Weather Service Charleston SC 800 PM EST WED FEB 22 2017 NOTE: "fair" indicates few or no clouds below 12,000 feet with no significant weather and/or obstructions to visibility. SCZ050-WAZ558-NCZ071-TXZ119-213-PAZ071-DCZ001-FLZ074-172-MI076- NYZ176-178-MAZ016-IL014-TNZ027-NJZ106-GAZ044-MD014-230200- ...Gateway Observations for Charleston International... CITY SKY/WX TMP DP RH WIND PRES REMARKS Chas Airport CLOUDY 65 58 78 E7 29.89S Seattle MOCLDY 44 32 62 NE14 30.17R Charlotte CLOUDY 61 52 72 NE3 29.93F Dallas DFW PTCLDY 74 47 38 S9 29.72S Dallas Love PTCLDY 76 46 34 S13 29.74R Philladelphia CLOUDY 52 44 74 S6 29.93R Wash National CLOUDY 54 48 80 S8 29.91F Baltimore CLOUDY 51 46 83 CALM 29.91S Miami PTCLDY 67 65 93 W8 29.65S Detroit CLOUDY 59 53 80 S9 29.75S Newark CLOUDY 51 40 65 VRB3 29.90S Laguardia MOCLDY 52 43 71 S7 29.90F J F K MOCLDY 46 45 96 CALM 29.93S Boston Logan CLEAR 41 38 89 E5 29.91S Ft. Lauderdale CLOUDY 66 64 93 SW8 29.63S Chicago O`Hare CLEAR 64 54 69 S13 29.60S Chicago Midway CLEAR 64 54 69 S13 29.61F Houston Bush CLEAR 68 52 56 W3 29.79S Houston Hobby CLEAR 70 53 54 S9 29.80R Nashville PTCLDY 63 56 78 S5 29.85S Atlanta CLOUDY 63 60 90 NE9 29.89R $$ GAZ044-118-TXZ119-213-NCZ071-DCZ001-MDZ014-506-PAZ021-071-NJZ106- NYZ176-178-MAZ106-OHZ011-021-055-MIZ076-KYZ091-ILZ014-INZ047- MNZ060-ONZ431-230200- ...Gateway Observations for Savannah International... CITY SKY/WX TMP DP RH WIND PRES REMARKS Savannah Arpt CLOUDY 66 59 78 E7 29.86R Atlanta CLOUDY 63 60 90 NE9 29.89R Charlotte CLOUDY 61 52 72 NE3 29.93F Dallas DFW PTCLDY 74 47 38 S9 29.72S Houston Bush CLEAR 68 52 56 W3 29.79S Wash National CLOUDY 54 48 80 S8 29.91F Wash Dulles CLOUDY 54 46 74 SE6 29.90S Baltimore CLOUDY 51 46 83 CALM 29.91S Philadelphia CLOUDY 52 44 74 S6 29.93R Newark CLOUDY 51 40 65 VRB3 29.90S Laguardia MOCLDY 52 43 71 S7 29.90F J F K MOCLDY 46 45 96 CALM 29.93S Boston CLEAR 41 38 89 E5 29.91S Pittsburg CLOUDY 61 51 70 SW6 29.84S Akron CLOUDY 57 51 80 SW8 29.84S Cleveland CLOUDY 60 52 74 S9 29.83R Cincinnati PTCLDY 61 55 81 S6 29.82R Columbus CLOUDY 56 55 94 S6 29.84S Detroit CLOUDY 59 53 80 S9 29.75S Chicago O`Hare CLEAR 64 54 69 S13 29.60S Minneapolis PTCLDY 49 42 77 NW3 29.60R Indianapolis MOCLDY 60 54 80 S7 29.77S Toronto Canada CLOUDY 41 39 93 S5 29.76S $$

USA.gov is the U.S. government's official web portal to all federal, state and local government web resources and services.